Huntsville Madison, AL

4:49 PM CDT on April 30, 2017 (GMT -0500)
Huntsville Madison

Weather History for KMDQ - January, 2014

Change the Weather History Date:

Wednesday, January 1, 2014

  Actual Average (KHSV) Record (KHSV)
Temperature  
Mean Temperature 37 °F -  
Max Temperature 50 °F 48 °F 79 °F (1952)
Min Temperature 24 °F 30 °F 7 °F (1977)
Degree Days  
Heating Degree Days 28    
Moisture  
Dew Point 27 °F    
Average Humidity 67    
Maximum Humidity 93    
Minimum Humidity 40    
Precipitation  
Precipitation 0.00 in - - ()
Sea Level Pressure  
Sea Level Pressure 30.21 in    
Wind  
Wind Speed 2 mph (SSE)    
Max Wind Speed 8 mph    
Max Gust Speed -    
Visibility 9 miles    
Events Rain    
Averages and records for this station are not official NWS values.
T = Trace of Precipitation, MM = Missing Value Source: NWS Daily Summary

Daily Weather History Graph

Daily Weather History Graph

Search for Another Location

Airport or City:

Trip Planner

Search our weather history database for the weather conditions in past years. The results will help you decide how hot, cold, wet, or windy it might be!

Date:

Astronomy

Jan. 01, 2014 Rise Set
Actual Time 6:53 AM CST 4:45 PM CST
Civil Twilight 6:25 AM CST 5:13 PM CST
Nautical Twilight 5:54 AM CST 5:45 PM CST
Astronomical Twilight 5:23 AM CST 6:16 PM CST
Moon 6:46 AM CST (1/1) 5:27 PM CST (1/1)
Length of Visible Light 10h 48m
Length of Day
9h 52m
New Moon, 0% of the Moon is Illuminated
Jan 1
New Moon
Jan 7
First Quarter
Jan 15
Full
Jan 23
Last Quarter
Jan 30
New

Hourly Weather History & Observations

Time (CST) Temp. Windchill Dew Point Humidity Pressure Visibility Wind Dir Wind Speed Gust Speed Precip Events Conditions
12:15 AM 28.4 °F - 26.6 °F 93% 30.34 in 7.0 mi Calm Calm - N/A   Clear
12:35 AM 28.4 °F - 26.6 °F 93% 30.34 in 7.0 mi Calm Calm - N/A   Clear
12:55 AM 28.4 °F - 26.6 °F 93% 30.33 in 7.0 mi Calm Calm - N/A   Clear
1:15 AM 28.4 °F - 24.8 °F 86% 30.33 in 7.0 mi Calm Calm - N/A   Clear
1:35 AM 28.4 °F - 26.6 °F 93% 30.33 in 7.0 mi Calm Calm - N/A   Clear
1:55 AM 28.4 °F - 26.6 °F 93% 30.32 in 7.0 mi Calm Calm - N/A   Clear
2:15 AM 26.6 °F - 23.0 °F 86% 30.31 in 5.0 mi Calm Calm - N/A   Clear
2:35 AM 26.6 °F - 23.0 °F 86% 30.32 in 7.0 mi Calm Calm - N/A   Clear
2:55 AM 26.6 °F - 23.0 °F 86% 30.31 in 7.0 mi Calm Calm - N/A   Clear
3:15 AM 26.6 °F - 23.0 °F 86% 30.30 in 7.0 mi Calm Calm - N/A   Clear
3:35 AM 26.6 °F - 23.0 °F 86% 30.30 in 7.0 mi Calm Calm - N/A   Clear
3:55 AM 26.6 °F - 23.0 °F 86% 30.30 in 10.0 mi Calm Calm - N/A   Clear
4:15 AM 26.6 °F - 23.0 °F 86% 30.30 in 10.0 mi Calm Calm - N/A   Clear
4:35 AM 26.6 °F - 23.0 °F 86% 30.30 in 7.0 mi Calm Calm - N/A   Clear
4:55 AM 24.8 °F - 21.2 °F 86% 30.31 in 7.0 mi Calm Calm - N/A   Clear
5:15 AM 26.6 °F - 23.0 °F 86% 30.31 in 10.0 mi Calm Calm - N/A   Clear
5:35 AM 26.6 °F - 23.0 °F 86% 30.31 in 10.0 mi Calm Calm - N/A   Clear
5:55 AM 26.6 °F - 21.2 °F 80% 30.32 in 10.0 mi Calm Calm - N/A   Clear
6:15 AM 26.6 °F - 23.0 °F 86% 30.30 in 10.0 mi Calm Calm - N/A   Clear
6:35 AM 26.6 °F - 23.0 °F 86% 30.30 in 10.0 mi Calm Calm - N/A   Clear
6:55 AM 26.6 °F - 23.0 °F 86% 30.30 in 10.0 mi Calm Calm - N/A   Clear
7:15 AM 26.6 °F - 23.0 °F 86% 30.30 in 10.0 mi Calm Calm - N/A   Clear
7:35 AM 26.6 °F - 23.0 °F 86% 30.30 in 10.0 mi Calm Calm - N/A   Clear
7:55 AM 28.4 °F - 24.8 °F 86% 30.30 in 10.0 mi Calm Calm - N/A   Clear
8:15 AM 32.0 °F - 26.6 °F 80% 30.30 in 10.0 mi Calm Calm - N/A   Clear
8:35 AM 32.0 °F - 26.6 °F 80% 30.30 in 10.0 mi Calm Calm - N/A   Clear
8:55 AM 32.0 °F - 28.4 °F 87% 30.31 in 10.0 mi Calm Calm - N/A   Clear
9:15 AM 32.0 °F - 28.4 °F 87% 30.31 in 10.0 mi Calm Calm - N/A   Clear
9:35 AM 33.8 °F 28.6 °F 26.6 °F 75% 30.31 in 10.0 mi SE 5.8 mph - N/A   Clear
9:55 AM 35.6 °F 31.7 °F 26.6 °F 70% 30.31 in 10.0 mi SSE 4.6 mph - N/A   Clear
10:15 AM 37.4 °F 32.1 °F 24.8 °F 60% 30.31 in 10.0 mi SE 6.9 mph - N/A   Clear
10:35 AM 41.0 °F 36.4 °F 23.0 °F 49% 30.30 in 10.0 mi SSE 6.9 mph - N/A   Clear
10:55 AM 41.0 °F 36.4 °F 23.0 °F 49% 30.29 in 10.0 mi SSE 6.9 mph - N/A   Clear
11:15 AM 42.8 °F 38.6 °F 23.0 °F 46% 30.28 in 10.0 mi SSE 6.9 mph - N/A   Clear
11:35 AM 42.8 °F 40.1 °F 23.0 °F 46% 30.26 in 10.0 mi SE 4.6 mph - N/A   Clear
11:55 AM 44.6 °F 43.1 °F 24.8 °F 46% 30.24 in 10.0 mi SSE 3.5 mph - N/A   Clear
12:15 PM 44.6 °F 40.7 °F 24.8 °F 46% 30.22 in 10.0 mi ESE 6.9 mph - N/A   Clear
12:35 PM 46.4 °F 45.2 °F 26.6 °F 46% 30.21 in 10.0 mi SE 3.5 mph - N/A   Clear
12:55 PM 46.4 °F 44.3 °F 24.8 °F 43% 30.20 in 10.0 mi SSE 4.6 mph - N/A   Clear
1:15 PM 46.4 °F 42.9 °F 26.6 °F 46% 30.19 in 10.0 mi South 6.9 mph - N/A   Clear
1:35 PM 48.2 °F - 26.6 °F 43% 30.18 in 10.0 mi South 3.5 mph - N/A   Clear
1:55 PM 48.2 °F - 26.6 °F 43% 30.17 in 10.0 mi South 6.9 mph - N/A   Clear
2:15 PM 50.0 °F - 26.6 °F 40% 30.16 in 10.0 mi SE 4.6 mph - N/A   Clear
2:35 PM 48.2 °F - 26.6 °F 43% 30.16 in 10.0 mi SE 5.8 mph - N/A   Clear
2:55 PM 50.0 °F - 26.6 °F 40% 30.15 in 10.0 mi SE 4.6 mph - N/A   Clear
3:15 PM 50.0 °F - 26.6 °F 40% 30.15 in 10.0 mi SSE 4.6 mph - N/A   Clear
3:35 PM 50.0 °F - 26.6 °F 40% 30.15 in 10.0 mi SSE 5.8 mph - N/A   Clear
3:55 PM 50.0 °F - 26.6 °F 40% 30.14 in 10.0 mi SSE 5.8 mph - N/A   Clear
4:15 PM 48.2 °F - 26.6 °F 43% 30.14 in 10.0 mi SSE 4.6 mph - N/A   Clear
4:35 PM 46.4 °F 43.5 °F 26.6 °F 46% 30.14 in 10.0 mi SE 5.8 mph - N/A   Clear
4:55 PM 46.4 °F 42.9 °F 26.6 °F 46% 30.14 in 10.0 mi SSE 6.9 mph - N/A   Clear
5:15 PM 44.6 °F 43.1 °F 28.4 °F 53% 30.13 in 10.0 mi SE 3.5 mph - N/A   Clear
5:35 PM 42.8 °F - 28.4 °F 57% 30.13 in 10.0 mi Calm Calm - N/A   Clear
5:55 PM 41.0 °F 39.0 °F 28.4 °F 61% 30.13 in 10.0 mi SE 3.5 mph - N/A   Clear
6:15 PM 37.4 °F - 28.4 °F 70% 30.13 in 10.0 mi Calm Calm - N/A   Clear
6:35 PM 41.0 °F 38.0 °F 28.4 °F 61% 30.12 in 10.0 mi SSE 4.6 mph - N/A   Clear
6:55 PM 42.8 °F 39.3 °F 30.2 °F 61% 30.11 in 10.0 mi SE 5.8 mph - N/A   Clear
7:15 PM 42.8 °F 39.3 °F 30.2 °F 61% 30.11 in 10.0 mi SE 5.8 mph - N/A   Clear
7:35 PM 42.8 °F 40.1 °F 30.2 °F 61% 30.11 in 10.0 mi SE 4.6 mph - N/A   Clear
7:55 PM 42.8 °F 39.3 °F 30.2 °F 61% 30.10 in 10.0 mi SE 5.8 mph - N/A   Clear
8:15 PM 42.8 °F 39.3 °F 32.0 °F 66% 30.09 in 10.0 mi SE 5.8 mph - N/A   Clear
8:35 PM 42.8 °F 40.1 °F 32.0 °F 66% 30.08 in 10.0 mi SE 4.6 mph - N/A   Clear
8:55 PM 42.8 °F 40.1 °F 32.0 °F 66% 30.08 in 10.0 mi SSE 4.6 mph - N/A   Clear
9:15 PM 42.8 °F 39.3 °F 32.0 °F 66% 30.07 in 10.0 mi SE 5.8 mph - N/A   Clear
9:35 PM 42.8 °F 40.1 °F 32.0 °F 66% 30.08 in 10.0 mi South 4.6 mph - N/A   Clear
9:55 PM 42.8 °F 39.3 °F 32.0 °F 66% 30.06 in 10.0 mi SE 5.8 mph - N/A   Clear
10:15 PM 44.6 °F 41.4 °F 32.0 °F 61% 30.06 in 10.0 mi SSE 5.8 mph - N/A   Clear
10:35 PM 44.6 °F 40.2 °F 32.0 °F 61% 30.06 in 10.0 mi South 8.1 mph - N/A   Scattered Clouds
10:55 PM 44.6 °F 40.7 °F 33.8 °F 66% 30.07 in 10.0 mi South 6.9 mph - N/A   Mostly Cloudy
11:15 PM 44.6 °F 40.2 °F 33.8 °F 66% 30.06 in 10.0 mi SSE 8.1 mph - N/A   Overcast
11:35 PM 44.6 °F 40.7 °F 33.8 °F 66% 30.05 in 10.0 mi SSE 6.9 mph - N/A Rain Light Rain
11:55 PM 44.6 °F 41.4 °F 33.8 °F 66% 30.05 in 10.0 mi SSE 5.8 mph - N/A   Overcast